| time (UTC) | temp F | wind direction | speed MPH | gust MPH | rain 1hr in | rain 24hr in | rain mn in | humidity % | barometer mb |
| 20260503054936 | 49 | 321 | 1.0 | 3.0 | 0.00 | 0.00 | 0.00 | 76 | 1006.0 |
| 20260503054429 | 48 | 44 | 2.0 | 3.0 | 0.00 | 0.00 | 0.00 | 77 | 1005.9 |
| 20260503053929 | 48 | 307 | 1.0 | 3.0 | 0.00 | 0.00 | 0.00 | 78 | 1006.3 |
| 20260503053430 | 48 | 345 | 0.0 | 4.0 | 0.00 | 0.00 | 0.00 | 79 | 1006.3 |
| 20260503052930 | 48 | 347 | 0.0 | 4.0 | 0.00 | 0.00 | 0.00 | 79 | 1006.1 |
| 20260503051929 | 47 | 285 | 1.0 | 3.0 | 0.00 | 0.00 | 0.00 | 79 | 1006.0 |
| 20260503051430 | 47 | 312 | 1.0 | 4.0 | 0.00 | 0.00 | 0.00 | 80 | 1006.0 |
| 20260503050432 | 47 | 358 | 2.0 | 3.0 | 0.00 | 0.00 | 0.00 | 81 | 1005.9 |
| 20260503045931 | 46 | 272 | 1.0 | 4.0 | 0.00 | 0.00 | 0.00 | 82 | 1005.8 |
| 20260503044931 | 46 | 272 | 1.0 | 3.0 | 0.00 | 0.00 | 0.00 | 83 | 1005.9 |
| 20260503044433 | 45 | 355 | 2.0 | 3.0 | 0.00 | 0.00 | 0.00 | 83 | 1006.0 |
| 20260503043904 | 45 | 264 | 0.0 | 2.0 | 0.00 | 0.00 | 0.00 | 84 | 1005.8 |
| 20260503042905 | 44 | 281 | 1.0 | 1.0 | 0.00 | 0.00 | 0.00 | 86 | 1005.8 |
| 20260503042404 | 44 | 238 | 0.0 | 1.0 | 0.00 | 0.00 | 0.00 | 86 | 1005.9 |
| 20260503041903 | 44 | 238 | 0.0 | 1.0 | 0.00 | 0.00 | 0.00 | 86 | 1005.8 |
| 20260503041402 | 44 | 151 | 0.0 | 2.0 | 0.00 | 0.00 | 0.00 | 87 | 1005.7 |
| 20260503040857 | 43 | 169 | 0.0 | 3.0 | 0.00 | 0.00 | 0.00 | 87 | 1005.5 |
| 20260503035850 | 43 | 164 | 1.0 | 2.0 | 0.00 | 0.00 | 0.00 | 88 | 1005.7 |
| 20260503035350 | 43 | 261 | 0.0 | 2.0 | 0.00 | 0.00 | 0.00 | 88 | 1005.4 |
| 20260503034852 | 42 | 296 | 1.0 | 2.0 | 0.00 | 0.00 | 0.00 | 89 | 1005.3 |
| 20260503034355 | 42 | 353 | 1.0 | 2.0 | 0.00 | 0.00 | 0.00 | 90 | 1005.3 |
| 20260503033855 | 41 | 13 | 0.0 | 2.0 | 0.00 | 0.00 | 0.00 | 91 | 1005.3 |
| 20260503032852 | 40 | 79 | 0.0 | 1.0 | 0.00 | 0.00 | 0.00 | 90 | 1005.2 |
| 20260503032353 | 40 | 79 | 0.0 | 1.0 | 0.00 | 0.00 | 0.00 | 90 | 1005.1 |
| 20260503031852 | 40 | 79 | 0.0 | 0.0 | 0.00 | 0.00 | 0.00 | 90 | 1005.2 |
| 20260503031350 | 40 | 79 | 0.0 | 0.0 | 0.00 | 0.00 | 0.00 | 90 | 1005.2 |
| 20260503030350 | 40 | 79 | 0.0 | 0.0 | 0.00 | 0.00 | 0.00 | 89 | 1005.4 |
| 20260503025851 | 40 | 79 | 0.0 | 0.0 | 0.00 | 0.00 | 0.00 | 89 | 1005.5 |
| 20260503024851 | 40 | 79 | 0.0 | 0.0 | 0.00 | 0.00 | 0.00 | 89 | 1005.5 |
| 20260503024350 | 40 | 79 | 0.0 | 0.0 | 0.00 | 0.00 | 0.00 | 89 | 1005.4 |
| 20260503023855 | 40 | 79 | 0.0 | 0.0 | 0.00 | 0.00 | 0.00 | 89 | 1005.4 |
| 20260503023351 | 40 | 79 | 0.0 | 1.0 | 0.00 | 0.00 | 0.00 | 89 | 1005.6 |
| 20260503022852 | 40 | 79 | 0.0 | 1.0 | 0.00 | 0.00 | 0.00 | 88 | 1005.5 |
| 20260503021854 | 40 | 55 | 0.0 | 0.0 | 0.00 | 0.00 | 0.00 | 88 | 1005.2 |
| 20260503020851 | 40 | 55 | 0.0 | 0.0 | 0.00 | 0.00 | 0.00 | 88 | 1005.4 |
| 20260503020353 | 40 | 55 | 0.0 | 0.0 | 0.00 | 0.00 | 0.00 | 88 | 1005.4 |
| 20260503015852 | 40 | 55 | 0.0 | 1.0 | 0.00 | 0.00 | 0.00 | 88 | 1005.4 |
| 20260503015352 | 40 | 55 | 0.0 | 1.0 | 0.00 | 0.00 | 0.00 | 88 | 1005.4 |
| 20260503014856 | 40 | 86 | 0.0 | 0.0 | 0.00 | 0.00 | 0.00 | 87 | 1005.3 |
| 20260503014349 | 40 | 86 | 0.0 | 0.0 | 0.00 | 0.00 | 0.00 | 88 | 1005.4 |
| 20260503013851 | 40 | 86 | 0.0 | 0.0 | 0.00 | 0.00 | 0.00 | 87 | 1005.4 |
| 20260503013350 | 40 | 86 | 0.0 | 0.0 | 0.00 | 0.00 | 0.00 | 88 | 1005.4 |
| 20260503012854 | 40 | 86 | 0.0 | 0.0 | 0.00 | 0.00 | 0.00 | 88 | 1005.4 |
| 20260503012350 | 40 | 86 | 0.0 | 0.0 | 0.00 | 0.00 | 0.00 | 87 | 1005.4 |
| 20260503011855 | 41 | 86 | 0.0 | 0.0 | 0.00 | 0.00 | 0.00 | 87 | 1005.3 |
| 20260503011354 | 41 | 86 | 0.0 | 0.0 | 0.00 | 0.00 | 0.00 | 87 | 1005.3 |
| 20260503010353 | 41 | 86 | 0.0 | 1.0 | 0.00 | 0.00 | 0.00 | 87 | 1005.3 |
| 20260503005853 | 41 | 86 | 0.0 | 0.0 | 0.00 | 0.00 | 0.00 | 87 | 1005.4 |
| 20260503005350 | 41 | 86 | 0.0 | 1.0 | 0.00 | 0.00 | 0.00 | 86 | 1005.6 |
| 20260503004851 | 41 | 86 | 0.0 | 1.0 | 0.00 | 0.00 | 0.00 | 86 | 1005.4 |
| 20260503004350 | 41 | 79 | 0.0 | 1.0 | 0.00 | 0.00 | 0.00 | 86 | 1005.3 |
| 20260503003851 | 41 | 79 | 0.0 | 1.0 | 0.00 | 0.00 | 0.00 | 86 | 1005.5 |
| 20260503003350 | 41 | 134 | 0.0 | 1.0 | 0.00 | 0.00 | 0.00 | 86 | 1005.4 |
| 20260503002851 | 41 | 134 | 0.0 | 1.0 | 0.00 | 0.00 | 0.00 | 85 | 1005.4 |
| 20260503002349 | 41 | 134 | 0.0 | 2.0 | 0.00 | 0.00 | 0.00 | 85 | 1005.4 |
| 20260503001857 | 41 | 134 | 0.0 | 2.0 | 0.00 | 0.00 | 0.00 | 85 | 1005.7 |
| 20260503001354 | 41 | 134 | 0.0 | 1.0 | 0.00 | 0.00 | 0.00 | 84 | 1005.7 |
| 20260502235349 | 42 | 69 | 0.0 | 1.0 | 0.00 | 0.00 | 0.00 | 84 | 1006.0 |
| 20260502234852 | 42 | 69 | 0.0 | 1.0 | 0.00 | 0.00 | 0.00 | 84 | 1006.2 |
| 20260502234348 | 42 | 54 | 0.0 | 1.0 | 0.00 | 0.00 | 0.00 | 84 | 1006.2 |
| 20260502233852 | 42 | 61 | 0.0 | 2.0 | 0.00 | 0.00 | 0.00 | 84 | 1006.2 |
| 20260502233345 | 42 | 350 | 1.0 | 2.0 | 0.00 | 0.00 | 0.00 | 84 | 1006.4 |
| 20260502232846 | 42 | 148 | 1.0 | 2.0 | 0.00 | 0.00 | 0.00 | 83 | 1006.2 |
| 20260502232334 | 42 | 140 | 1.0 | 2.0 | 0.00 | 0.00 | 0.00 | 83 | 1006.2 |
| 20260502231834 | 42 | 109 | 1.0 | 2.0 | 0.00 | 0.00 | 0.00 | 83 | 1006.2 |
| 20260502231332 | 42 | 68 | 0.0 | 1.0 | 0.00 | 0.00 | 0.00 | 83 | 1006.3 |
| 20260502230832 | 42 | 62 | 0.0 | 1.0 | 0.00 | 0.00 | 0.00 | 82 | 1006.4 |
| 20260502230331 | 43 | 161 | 0.0 | 1.0 | 0.00 | 0.00 | 0.00 | 82 | 1006.5 |
| 20260502225504 | 43 | 199 | 0.0 | 0.0 | 0.00 | 0.00 | 0.00 | 82 | 1006.6 |
| 20260502224844 | 43 | 199 | 0.0 | 2.0 | 0.00 | 0.00 | 0.00 | 81 | 1006.6 |
| 20260502224329 | 43 | 199 | 0.0 | 2.0 | 0.00 | 0.00 | 0.00 | 81 | 1006.6 |
| 20260502223829 | 43 | 171 | 0.0 | 3.0 | 0.00 | 0.00 | 0.00 | 81 | 1006.5 |
| 20260502223329 | 43 | 171 | 1.0 | 3.0 | 0.00 | 0.00 | 0.00 | 81 | 1006.6 |
| 20260502222833 | 43 | 135 | 0.0 | 1.0 | 0.00 | 0.00 | 0.00 | 81 | 1006.6 |
| 20260502222329 | 43 | 159 | 0.0 | 1.0 | 0.00 | 0.00 | 0.00 | 80 | 1006.7 |
| 20260502221829 | 43 | 159 | 0.0 | 1.0 | 0.00 | 0.00 | 0.00 | 80 | 1006.7 |
| 20260502221332 | 43 | 159 | 0.0 | 1.0 | 0.00 | 0.00 | 0.00 | 79 | 1006.8 |
| 20260502220820 | 44 | 159 | 0.0 | 1.0 | 0.00 | 0.00 | 0.00 | 80 | 1006.8 |
| 20260502220316 | 44 | 159 | 0.0 | 0.0 | 0.00 | 0.00 | 0.00 | 79 | 1006.9 |
| 20260502215805 | 44 | 159 | 0.0 | 0.0 | 0.00 | 0.00 | 0.00 | 79 | 1007.0 |
| 20260502215305 | 44 | 159 | 0.0 | 0.0 | 0.00 | 0.00 | 0.00 | 78 | 1007.0 |
| 20260502214801 | 44 | 159 | 0.0 | 0.0 | 0.00 | 0.00 | 0.00 | 78 | 1007.0 |
| 20260502214301 | 45 | 159 | 0.0 | 0.0 | 0.00 | 0.00 | 0.00 | 78 | 1007.1 |
| 20260502213801 | 45 | 159 | 0.0 | 0.0 | 0.00 | 0.00 | 0.00 | 77 | 1007.1 |
| 20260502213305 | 45 | 159 | 0.0 | 2.0 | 0.00 | 0.00 | 0.00 | 76 | 1007.2 |
| 20260502212805 | 45 | 159 | 1.0 | 2.0 | 0.00 | 0.00 | 0.00 | 76 | 1007.2 |
| 20260502211802 | 46 | 121 | 1.0 | 2.0 | 0.00 | 0.00 | 0.00 | 75 | 1007.3 |
| 20260502211301 | 46 | 147 | 0.0 | 3.0 | 0.00 | 0.00 | 0.00 | 75 | 1007.4 |
| 20260502210301 | 47 | 157 | 0.0 | 1.0 | 0.00 | 0.00 | 0.00 | 74 | 1007.5 |
| 20260502205804 | 47 | 157 | 0.0 | 1.0 | 0.00 | 0.00 | 0.00 | 73 | 1007.5 |
| 20260502205305 | 47 | 157 | 0.0 | 0.0 | 0.00 | 0.00 | 0.00 | 73 | 1007.6 |
| 20260502204802 | 48 | 157 | 0.0 | 0.0 | 0.00 | 0.00 | 0.00 | 72 | 1007.7 |
| 20260502203803 | 48 | 159 | 0.0 | 0.0 | 0.00 | 0.00 | 0.00 | 71 | 1007.8 |
| 20260502203302 | 49 | 159 | 0.0 | 1.0 | 0.00 | 0.00 | 0.00 | 71 | 1007.8 |
| 20260502202804 | 49 | 159 | 0.0 | 2.0 | 0.00 | 0.00 | 0.00 | 70 | 1007.9 |
| 20260502202305 | 49 | 155 | 0.0 | 2.0 | 0.00 | 0.00 | 0.00 | 69 | 1007.9 |
| 20260502201805 | 49 | 158 | 1.0 | 1.0 | 0.00 | 0.00 | 0.00 | 69 | 1007.9 |
| 20260502200803 | 50 | 152 | 0.0 | 2.0 | 0.00 | 0.00 | 0.00 | 67 | 1008.1 |
| 20260502200302 | 51 | 169 | 1.0 | 2.0 | 0.00 | 0.00 | 0.00 | 67 | 1008.0 |
| 20260502195801 | 51 | 114 | 1.0 | 2.0 | 0.00 | 0.00 | 0.00 | 66 | 1008.1 |
| 20260502195305 | 51 | 278 | 0.0 | 1.0 | 0.00 | 0.00 | 0.00 | 65 | 1008.1 |
| 20260502194302 | 52 | 326 | 0.0 | 0.0 | 0.00 | 0.00 | 0.00 | 64 | 1008.1 |
| 20260502193801 | 52 | 326 | 0.0 | 0.0 | 0.00 | 0.00 | 0.00 | 64 | 1008.2 |
| 20260502193305 | 53 | 326 | 0.0 | 1.0 | 0.00 | 0.00 | 0.00 | 64 | 1008.1 |
| 20260502192801 | 53 | 326 | 0.0 | 2.0 | 0.00 | 0.00 | 0.00 | 63 | 1008.2 |
| 20260502192301 | 53 | 254 | 0.0 | 2.0 | 0.00 | 0.00 | 0.00 | 63 | 1008.1 |
| 20260502191801 | 53 | 281 | 0.0 | 1.0 | 0.00 | 0.00 | 0.00 | 62 | 1008.2 |
| 20260502191301 | 54 | 281 | 0.0 | 0.0 | 0.00 | 0.00 | 0.00 | 62 | 1008.3 |
| 20260502190801 | 54 | 289 | 0.0 | 0.0 | 0.00 | 0.00 | 0.00 | 61 | 1008.3 |
| 20260502190305 | 54 | 292 | 0.0 | 3.0 | 0.00 | 0.00 | 0.00 | 61 | 1008.4 |
| 20260502185806 | 55 | 292 | 1.0 | 3.0 | 0.00 | 0.00 | 0.00 | 60 | 1008.4 |
| 20260502185306 | 55 | 0 | 0.0 | 2.0 | 0.00 | 0.00 | 0.00 | 60 | 1008.4 |
| 20260502184803 | 55 | 4 | 0.0 | 2.0 | 0.00 | 0.00 | 0.00 | 60 | 1008.4 |
| 20260502183805 | 56 | 6 | 0.0 | 2.0 | 0.00 | 0.00 | 0.00 | 59 | 1008.5 |
| 20260502182304 | 57 | 47 | 1.0 | 3.0 | 0.00 | 0.00 | 0.00 | 57 | 1008.5 |
| 20260502181757 | 57 | 166 | 0.0 | 2.0 | 0.00 | 0.00 | 0.00 | 56 | 1008.5 |
| 20260502181258 | 58 | 158 | 0.0 | 2.0 | 0.00 | 0.00 | 0.00 | 55 | 1008.5 |
| 20260502180754 | 58 | 131 | 1.0 | 2.0 | 0.00 | 0.00 | 0.00 | 55 | 1008.6 |
| 20260502180253 | 58 | 59 | 0.0 | 5.0 | 0.00 | 0.00 | 0.00 | 54 | 1008.5 |
| 20260502164249 | 63 | 149 | 2.0 | 6.0 | 0.00 | 0.00 | 0.00 | 40 | 1008.4 |
| 20260502163752 | 64 | 0 | 1.0 | 6.0 | 0.00 | 0.00 | 0.00 | 39 | 1008.4 |
| 20260502163249 | 64 | 186 | 1.0 | 3.0 | 0.00 | 0.00 | 0.00 | 39 | 1008.3 |
| 20260502162749 | 64 | 45 | 1.0 | 4.0 | 0.00 | 0.00 | 0.00 | 39 | 1008.4 |
| 20260502162249 | 64 | 20 | 2.0 | 4.0 | 0.00 | 0.00 | 0.00 | 38 | 1008.3 |
| 20260502161749 | 64 | 290 | 2.0 | 4.0 | 0.00 | 0.00 | 0.00 | 37 | 1008.4 |
| 20260502161254 | 65 | 214 | 2.0 | 5.0 | 0.00 | 0.00 | 0.00 | 36 | 1008.4 |
| 20260502160730 | 65 | 344 | 2.0 | 5.0 | 0.00 | 0.00 | 0.00 | 36 | 1008.4 |
| 20260502152229 | 66 | 243 | 2.0 | 9.0 | 0.00 | 0.00 | 0.00 | 33 | 1008.8 |
| 20260502151729 | 66 | 117 | 2.0 | 5.0 | 0.00 | 0.00 | 0.00 | 33 | 1008.8 |
| 20260502151230 | 66 | 262 | 2.0 | 6.0 | 0.00 | 0.00 | 0.00 | 33 | 1008.8 |
| 20260502150729 | 66 | 0 | 3.0 | 6.0 | 0.00 | 0.00 | 0.00 | 32 | 1008.8 |
| 20260502150233 | 66 | 275 | 2.0 | 7.0 | 0.00 | 0.00 | 0.00 | 33 | 1008.8 |
| 20260502130656 | 70 | 248 | 2.0 | 10.0 | 0.00 | 0.00 | 0.00 | 32 | 1008.8 |
| 20260502123649 | 71 | 334 | 2.0 | 7.0 | 0.00 | 0.00 | 0.00 | 32 | 1008.9 |
| 20260502122649 | 71 | 250 | 3.0 | 9.0 | 0.00 | 0.00 | 0.00 | 30 | 1008.9 |
| 20260502122148 | 71 | 321 | 3.0 | 7.0 | 0.00 | 0.00 | 0.00 | 30 | 1009.0 |
| 20260502121652 | 71 | 355 | 2.0 | 7.0 | 0.00 | 0.00 | 0.00 | 31 | 1008.9 |
| 20260502121149 | 71 | 285 | 2.0 | 6.0 | 0.00 | 0.00 | 0.00 | 31 | 1008.9 |
| 20260502120648 | 71 | 357 | 2.0 | 11.0 | 0.00 | 0.00 | 0.00 | 31 | 1009.1 |
| 20260502115648 | 71 | 17 | 4.0 | 9.0 | 0.00 | 0.00 | 0.00 | 31 | 1009.1 |
| 20260502115152 | 72 | 1 | 2.0 | 6.0 | 0.00 | 0.00 | 0.00 | 30 | 1009.1 |
| 20260502114652 | 72 | 183 | 2.0 | 7.0 | 0.00 | 0.00 | 0.00 | 31 | 1009.1 |
| 20260502114150 | 72 | 283 | 3.0 | 7.0 | 0.00 | 0.00 | 0.00 | 32 | 1009.1 |
| 20260502113136 | 72 | 264 | 1.0 | 9.0 | 0.00 | 0.00 | 0.00 | 33 | 1009.1 |
| 20260502112629 | 71 | 251 | 2.0 | 6.0 | 0.00 | 0.00 | 0.00 | 41 | 1009.2 |
| 20260502112130 | 70 | 124 | 3.0 | 6.0 | 0.00 | 0.00 | 0.00 | 42 | 1009.2 |
| 20260502111633 | 70 | 282 | 1.0 | 6.0 | 0.00 | 0.00 | 0.00 | 42 | 1009.3 |
| 20260502111105 | 71 | 165 | 3.0 | 6.0 | 0.00 | 0.00 | 0.00 | 40 | 1009.4 |
| 20260502110608 | 71 | 292 | 2.0 | 4.0 | 0.00 | 0.00 | 0.00 | 41 | 1009.3 |
| 20260502110106 | 72 | 345 | 2.0 | 9.0 | 0.00 | 0.00 | 0.00 | 41 | 1009.4 |
| 20260502105606 | 72 | 123 | 2.0 | 10.0 | 0.00 | 0.00 | 0.00 | 41 | 1009.4 |
| 20260502105057 | 72 | 210 | 3.0 | 10.0 | 0.00 | 0.00 | 0.00 | 41 | 1009.4 |
| 20260502103554 | 71 | 87 | 1.0 | 5.0 | 0.00 | 0.00 | 0.00 | 41 | 1009.4 |
| 20260502103048 | 71 | 333 | 3.0 | 6.0 | 0.00 | 0.00 | 0.00 | 41 | 1009.5 |
| 20260502102549 | 71 | 265 | 1.0 | 6.0 | 0.00 | 0.00 | 0.00 | 41 | 1009.5 |
| 20260502102049 | 71 | 188 | 2.0 | 6.0 | 0.00 | 0.00 | 0.00 | 39 | 1009.6 |
| 20260502101549 | 72 | 182 | 2.0 | 6.0 | 0.00 | 0.00 | 0.00 | 40 | 1009.6 |
| 20260502101048 | 72 | 266 | 2.0 | 5.0 | 0.00 | 0.00 | 0.00 | 40 | 1009.5 |
| 20260502100548 | 72 | 312 | 3.0 | 5.0 | 0.00 | 0.00 | 0.00 | 40 | 1009.6 |
| 20260502071448 | 63 | 298 | 2.0 | 4.0 | 0.00 | 0.00 | 0.00 | 47 | 1010.8 |
| 20260502070948 | 62 | 118 | 1.0 | 4.0 | 0.00 | 0.00 | 0.00 | 49 | 1010.8 |
| 20260502070448 | 62 | 8 | 2.0 | 3.0 | 0.00 | 0.00 | 0.00 | 49 | 1010.8 |
| 20260502065948 | 61 | 338 | 2.0 | 3.0 | 0.00 | 0.00 | 0.00 | 50 | 1010.8 |
| 20260502065448 | 61 | 344 | 2.0 | 3.0 | 0.00 | 0.00 | 0.00 | 51 | 1010.8 |
| 20260502064948 | 61 | 251 | 1.0 | 3.0 | 0.00 | 0.00 | 0.00 | 51 | 1010.9 |